Notices

What's New in latest Release from April 7th, 2021:

- Updated Glossary, including Speed of Maximum Gust, and Total Hourly Precipitation

- Updated national and regional climate services offices contacts and prices information

- Addition of station inventory lists for 1981-2010, 1971-2000, and 1961-1990 Normals.

If you haven't already, please take our survey and provide feedback about our website: https://eccc.sondage-survey.ca/f/LanguageSelection.aspx?s=442ca660-fcf1-47c0-95a9-59707d6fd709

Hourly Data Report for November 05, 2016

CARBERRY CS
MANITOBA

49°54'20.900" N
99°21'26.800" W
383.50 m
5010547
71170
WZE

Download Data

Hourly Data (November 2016)
Hourly Data Report for November 5, 2016
TIME
LST
Temp Definition
°C
Dew Point Definition
°C
Rel Hum Definition
%
Precip. Amount Definition
mm

Wind Dir Definition
10's deg

Wind Spd Definition
km/h
Visibility Definition
km
Stn Press Definition
kPa
Hmdx Definition


Wind Chill Definition


Weather Definition


00:00 5.2 2.1 80 0.0 20 9   97.40     LegendNANA
01:00 3.1 1.9 91 0.0 29 4   97.39     LegendNANA
02:00 2.6 1.7 94 0.0 16 2   97.41     LegendNANA
03:00 1.1 0.0 92 0.0 15 6   97.36     LegendNANA
04:00 1.2 0.1 93 0.0   0   97.34     LegendNANA
05:00 0.9 0.0 94 0.0 13 5   97.29     LegendNANA
06:00 -0.1 -1.0 93 0.0 14 7   97.27   -3 LegendNANA
07:00 2.0 1.3 95 0.0 17 6   97.23     LegendNANA
08:00 2.5 1.6 94 0.0 14 5   97.24     LegendNANA
09:00 5.7 2.9 82 0.0 16 5   97.23     LegendNANA
10:00 8.5 3.3 70 0.0 19 10   97.22     LegendNANA
11:00 11.5 4.3 61 0.0 18 10   97.18     LegendNANA
12:00 15.1 4.8 50 0.0 20 6   97.12     LegendNANA
13:00 17.3 4.3 42 0.0 17 11   97.02     LegendNANA
14:00 19.2 4.4 38 0.0 18 14   96.96     LegendNANA
15:00 20.0 5.4 38 0.0 18 10   96.89     LegendNANA
16:00 18.7 5.8 43 0.0 17 13   96.85     LegendNANA
17:00 14.8 6.0 55 0.0 18 11   96.82     LegendNANA
18:00 13.5 6.4 62 0.0 19 12   96.83     LegendNANA
19:00 11.2 5.2 66 0.0 20 13   96.82     LegendNANA
20:00 10.5 5.2 70 0.0 21 8   96.79     LegendNANA
21:00 8.8 4.5 74 0.0 23 6   96.75     LegendNANA
22:00 8.6 4.3 74 0.0 21 9   96.74     LegendNANA
23:00 7.3 3.4 76 0.0 21 10   96.70     LegendNANA

Notes on Data Quality.

Legend

  • E = Estimated
  • M = Missing
  • NA = Not Available*
  • [empty] = Indicates an unobserved value
Date modified: